This is the latest recevied weather packets stored in our database for station/object 9A3SWO. If no packets are shown the sender has not sent any weather packets the latest 10 day(s).
| Time | Temp. | Humidity | Pressure | Rain* | Wind** | Luminosity | Snow |
|---|---|---|---|---|---|---|---|
| 1787399277 | 24.44° C | 60% | 1017.6 hPa | - | - | - | - |
| 1787398677 | 24.44° C | 58% | 1017.5 hPa | - | - | - | - |
| 1787398076 | 25° C | 58% | 1017.7 hPa | - | - | - | - |
| 1787397477 | 25.56° C | 58% | 1017.8 hPa | - | - | - | - |
| 1787396876 | 25.56° C | 59% | 1017.6 hPa | - | - | - | - |
| 1787396277 | 25° C | 59% | 1017.4 hPa | - | - | - | - |
| 1787395677 | 25° C | 58% | 1017.3 hPa | - | - | - | - |
| 1787395076 | 25.56° C | 59% | 1017.3 hPa | - | - | - | - |
| 1787394476 | 25.56° C | 58% | 1017.4 hPa | - | - | - | - |
| 1787393877 | 25° C | 59% | 1017.3 hPa | - | - | - | - |
| 1787393276 | 25° C | 59% | 1017.1 hPa | - | - | - | - |
| 1787392677 | 24.44° C | 61% | 1017.1 hPa | - | - | - | - |
| 1787392077 | 24.44° C | 60% | 1017 hPa | - | - | - | - |
| 1787391476 | 25.56° C | 60% | 1016.9 hPa | - | - | - | - |
| 1787390877 | 25.56° C | 59% | 1016.9 hPa | - | - | - | - |
| 1787390277 | 25.56° C | 58% | 1016.9 hPa | - | - | - | - |
| 1787389676 | 25° C | 58% | 1016.8 hPa | - | - | - | - |
| 1787389077 | 25° C | 58% | 1016.7 hPa | - | - | - | - |
| 1787388477 | 24.44° C | 57% | 1016.5 hPa | - | - | - | - |
| 1787387876 | 24.44° C | 59% | 1016.5 hPa | - | - | - | - |
| 1787387277 | 24.44° C | 56% | 1016.3 hPa | - | - | - | - |
| 1787386676 | 25° C | 56% | 1016.3 hPa | - | - | - | - |
| 1787386076 | 26.11° C | 57% | 1016.1 hPa | - | - | - | - |
| 1787385477 | 26.11° C | 54% | 1015.9 hPa | - | - | - | - |
| 1787384876 | 25.56° C | 54% | 1015.8 hPa | - | - | - | - |
* Rain since midnight (hover to see other rain measurements)
** Current wind speed in m/s (hover to see current wind gust speed)